"read_dt","SO2 (ppb)","flags","PMT voltage (V)","lamp voltage (V)","lamp intensity (Hz)","internal temp (C)","react chamber temp (C)","sample flow (l/min)","pres (mmHg)","SO2 bkg (ppb)","SO2 coefficient"
2018-09-13 00:00:00,-2.750E-01,4C000000*,-703.0,964.192,91,22.3,44.9,0.409,744.4,2.2,1.050*
2018-09-13 00:01:00,-1.938E-01,4C000000*,-703.4,963.384,89,22.3,45.1,0.410,744.1,2.2,1.050*
2018-09-13 00:02:00,-3.392E-01,4C000000*,-703.0,964.597,89,22.4,44.7,0.409,744.1,2.2,1.050*
2018-09-13 00:03:00,-2.257E-01,4C000000*,-703.0,965.001,90,22.3,44.8,0.410,744.1,2.2,1.050*
2018-09-13 00:04:00,-2.543E-01,4C000000*,-703.0,964.597,89,22.4,44.9,0.410,744.4,2.2,1.050*
2018-09-13 00:05:00,-2.487E-01,4C000000*,-703.0,964.597,90,22.3,45.0,0.410,744.4,2.2,1.050*
2018-09-13 00:06:00,-2.692E-01,4C000000*,-703.0,963.788,90,22.4,44.8,0.409,744.1,2.2,1.050*
2018-09-13 00:07:00,-1.492E-01,4C000000*,-703.4,964.192,90,22.4,44.9,0.409,744.4,2.2,1.050*
2018-09-13 00:08:00,-3.019E-01,4C000000*,-703.0,964.597,90,22.4,45.1,0.410,744.4,2.2,1.050*
2018-09-13 00:09:00,-2.921E-01,4C000000*,-703.0,964.597,90,22.4,44.8,0.409,744.4,2.2,1.050*
2018-09-13 00:10:00,-2.845E-01,4C000000*,-703.0,963.384,90,22.4,44.9,0.409,744.4,2.2,1.050*
2018-09-13 00:11:00,-2.732E-01,4C000000*,-703.0,964.192,89,22.4,45.1,0.410,744.1,2.2,1.050*
2018-09-13 00:12:00,-2.804E-01,4C000000*,-703.4,963.788,90,22.3,44.7,0.410,744.1,2.2,1.050*
2018-09-13 00:13:00,-2.519E-01,4C000000*,-703.4,963.384,91,22.4,44.8,0.409,744.1,2.2,1.050*
2018-09-13 00:14:00,-2.653E-01,4C000000*,-702.6,964.597,91,22.4,45.0,0.409,744.4,2.2,1.050*
2018-09-13 00:15:00,-3.105E-01,4C000000*,-703.0,962.979,90,22.5,45.0,0.409,744.1,2.2,1.050*
2018-09-13 00:16:00,-2.599E-01,4C000000*,-703.4,964.597,90,22.5,44.7,0.409,744.1,2.2,1.050*
2018-09-13 00:17:00,-2.515E-01,4C000000*,-702.6,965.405,90,22.4,44.9,0.410,744.4,2.2,1.050*
2018-09-13 00:18:00,-3.055E-01,4C000000*,-703.0,963.788,90,22.4,45.0,0.410,744.1,2.2,1.050*
2018-09-13 00:19:00,-2.215E-01,4C000000*,-703.7,963.384,90,22.5,45.0,0.409,744.1,2.2,1.050*
2018-09-13 00:20:00,-2.405E-01,4C000000*,-703.0,963.788,91,22.4,44.8,0.410,744.1,2.2,1.050*
2018-09-13 00:21:00,-3.129E-01,4C000000*,-703.0,962.979,89,22.4,45.0,0.410,744.4,2.2,1.050*
2018-09-13 00:22:00,-3.074E-01,4C000000*,-703.0,963.384,90,22.4,45.0,0.409,744.4,2.2,1.050*
2018-09-13 00:23:00,-2.878E-01,4C000000*,-703.0,963.384,88,22.4,44.7,0.409,744.1,2.2,1.050*
2018-09-13 00:24:00,-2.569E-01,4C000000*,-703.4,963.384,90,22.4,44.8,0.409,744.4,2.2,1.050*
2018-09-13 00:25:00,-1.580E-01,4C000000*,-703.0,965.001,90,22.5,45.0,0.410,744.4,2.2,1.050*
2018-09-13 00:26:00,-2.542E-01,4C000000*,-703.0,963.384,89,22.4,44.8,0.409,744.1,2.2,1.050*
2018-09-13 00:27:00,-2.352E-01,4C000000*,-703.0,964.597,90,22.4,44.7,0.410,744.4,2.2,1.050*
2018-09-13 00:28:00,-2.762E-01,4C000000*,-703.0,964.597,90,22.4,44.9,0.410,744.4,2.2,1.050*
2018-09-13 00:29:00,-3.370E-01,4C000000*,-703.4,964.192,90,22.5,45.1,0.410,744.1,2.2,1.050*
2018-09-13 00:30:00,-1.831E-01,4C000000*,-703.0,964.192,91,22.5,44.8,0.409,744.1,2.2,1.050*
2018-09-13 00:31:00,-2.151E-01,4C000000*,-703.0,963.384,90,22.5,44.8,0.410,744.1,2.2,1.050*
2018-09-13 00:32:00,-3.463E-01,4C000000*,-703.4,962.979,90,22.5,44.8,0.410,744.1,2.2,1.050*
2018-09-13 00:33:00,-2.768E-01,4C000000*,-703.0,963.788,89,22.5,45.0,0.410,744.4,2.2,1.050*
2018-09-13 00:34:00,-2.904E-01,4C000000*,-703.0,964.192,90,22.5,45.0,0.409,744.1,2.2,1.050*
2018-09-13 00:35:00,-2.135E-01,4C000000*,-703.0,963.384,91,22.5,44.7,0.409,744.1,2.2,1.050*
2018-09-13 00:36:00,-2.758E-01,4C000000*,-703.0,964.597,90,22.5,44.9,0.410,744.1,2.2,1.050*
2018-09-13 00:37:00,-2.941E-01,4C000000*,-702.6,964.192,90,22.6,45.0,0.410,744.1,2.2,1.050*
2018-09-13 00:38:00,-3.437E-01,4C000000*,-703.0,963.788,89,22.5,45.0,0.410,744.1,2.2,1.050*
2018-09-13 00:39:00,-2.347E-01,4C000000*,-703.4,964.192,91,22.5,44.7,0.409,744.1,2.2,1.050*
2018-09-13 00:40:00,-2.601E-01,4C000000*,-703.0,963.788,89,22.5,44.8,0.410,744.1,2.2,1.050*
2018-09-13 00:41:00,-7.789E-02,4C000000*,-703.0,964.597,89,22.5,45.0,0.409,744.1,2.2,1.050*
2018-09-13 00:42:00,-1.431E-01,4C000000*,-703.0,964.597,91,22.6,45.0,0.410,744.1,2.2,1.050*
2018-09-13 00:43:00,-2.555E-01,4C000000*,-703.0,962.979,90,22.6,44.7,0.409,744.1,2.2,1.050*
2018-09-13 00:44:00,-2.676E-01,4C000000*,-703.4,964.192,90,22.5,44.8,0.410,744.1,2.2,1.050*
2018-09-13 00:45:00,-2.836E-01,4C000000*,-703.4,962.979,90,22.6,44.9,0.410,744.1,2.2,1.050*
2018-09-13 00:46:00,-2.335E-01,4C000000*,-702.6,962.979,90,22.5,45.1,0.409,743.8,2.2,1.050*
2018-09-13 00:47:00,-3.262E-01,4C000000*,-703.0,964.192,91,22.6,44.8,0.409,744.1,2.2,1.050*
2018-09-13 00:48:00,-3.550E-01,4C000000*,-703.0,962.979,90,22.5,45.0,0.410,744.1,2.2,1.050*
2018-09-13 00:49:00,-3.215E-01,4C000000*,-703.0,963.384,90,22.6,45.0,0.409,744.1,2.2,1.050*
2018-09-13 00:50:00,-2.699E-01,4C000000*,-703.0,964.597,89,22.5,44.7,0.410,744.4,2.2,1.050*
2018-09-13 00:51:00,-3.024E-01,4C000000*,-703.0,962.979,88,22.6,44.8,0.409,744.1,2.2,1.050*
2018-09-13 00:52:00,-3.353E-01,4C000000*,-703.0,964.192,89,22.7,45.0,0.410,744.1,2.2,1.050*
2018-09-13 00:53:00,-2.714E-01,4C000000*,-703.0,964.192,90,22.6,45.0,0.410,744.1,2.2,1.050*
2018-09-13 00:54:00,-3.354E-01,4C000000*,-703.4,963.788,91,22.6,44.7,0.409,744.1,2.2,1.050*
2018-09-13 00:55:00,-3.016E-01,4C000000*,-703.0,963.384,90,22.6,44.8,0.410,744.1,2.2,1.050*
2018-09-13 00:56:00,-2.863E-01,4C000000*,-703.0,963.384,89,22.7,45.0,0.410,744.1,2.2,1.050*
2018-09-13 00:57:00,-2.999E-01,4C000000*,-703.0,961.767,89,22.5,44.9,0.410,744.1,2.2,1.050*
2018-09-13 00:58:00,-2.782E-01,4C000000*,-703.4,963.788,89,22.6,44.8,0.410,744.1,2.2,1.050*
2018-09-13 00:59:00,-2.627E-01,4C000000*,-703.4,962.979,89,22.6,44.9,0.410,744.1,2.2,1.050*
2018-09-13 01:00:00,-3.263E-01,4C000000*,-703.0,962.979,89,22.6,45.1,0.409,744.1,2.2,1.050*
2018-09-13 01:01:00,-2.835E-01,4C000000*,-703.0,963.384,90,22.6,44.7,0.409,744.1,2.2,1.050*
2018-09-13 01:02:00,-3.182E-01,4C000000*,-703.0,963.384,91,22.7,44.8,0.410,744.4,2.2,1.050*
2018-09-13 01:03:00,-3.238E-01,4C000000*,-703.4,963.788,89,22.7,44.9,0.409,744.4,2.2,1.050*
2018-09-13 01:04:00,-2.802E-01,4C000000*,-702.6,964.192,91,22.7,45.0,0.409,744.1,2.2,1.050*
2018-09-13 01:05:00,-2.854E-01,4C000000*,-703.0,965.001,89,22.6,44.8,0.410,744.1,2.2,1.050*
2018-09-13 01:06:00,-3.340E-01,4C000000*,-703.0,963.788,91,22.7,44.9,0.410,744.1,2.2,1.050*
2018-09-13 01:07:00,-2.907E-01,4C000000*,-703.4,964.192,90,22.8,45.1,0.410,744.1,2.2,1.050*
2018-09-13 01:08:00,-2.576E-01,4C000000*,-703.4,964.192,91,22.7,44.8,0.410,744.1,2.2,1.050*
2018-09-13 01:09:00,-3.030E-01,4C000000*,-702.6,965.405,91,22.8,44.9,0.410,744.1,2.2,1.050*
2018-09-13 01:10:00,-2.193E-01,4C000000*,-703.0,964.192,89,22.7,45.0,0.409,744.1,2.2,1.050*
2018-09-13 01:11:00,-3.564E-01,4C000000*,-703.0,964.192,89,22.7,44.9,0.410,744.1,2.2,1.050*
2018-09-13 01:12:00,-2.567E-01,4C000000*,-703.0,963.384,89,22.7,44.8,0.409,744.1,2.2,1.050*
2018-09-13 01:13:00,-3.360E-01,4C000000*,-703.0,966.214,87,22.8,45.0,0.410,744.1,2.2,1.050*
2018-09-13 01:14:00,-2.904E-01,4C000000*,-703.0,965.001,88,22.7,45.0,0.409,744.1,2.2,1.050*
2018-09-13 01:15:00,-3.003E-01,4C000000*,-703.0,964.597,90,22.7,44.7,0.410,744.1,2.2,1.050*
2018-09-13 01:16:00,-3.753E-01,4C000000*,-703.0,962.979,90,22.7,44.8,0.410,744.1,2.2,1.050*
2018-09-13 01:17:00,-3.335E-01,4C000000*,-703.0,964.192,90,22.8,44.9,0.410,744.1,2.2,1.050*
2018-09-13 01:18:00,-2.902E-01,4C000000*,-703.0,965.001,90,22.8,45.1,0.410,744.1,2.2,1.050*
2018-09-13 01:19:00,-2.338E-01,4C000000*,-703.4,964.192,90,22.8,44.7,0.410,744.1,2.2,1.050*
2018-09-13 01:20:00,-2.678E-01,4C000000*,-703.0,963.384,91,22.8,44.8,0.410,743.8,2.2,1.050*
2018-09-13 01:21:00,-2.590E-01,4C000000*,-703.0,965.809,91,22.8,44.9,0.410,744.1,2.2,1.050*
2018-09-13 01:22:00,-2.480E-01,4C000000*,-703.4,964.192,90,22.9,45.1,0.410,743.8,2.2,1.050*
2018-09-13 01:23:00,-3.483E-01,4C000000*,-703.4,963.788,89,22.8,44.8,0.410,744.4,2.2,1.050*
2018-09-13 01:24:00,-3.367E-01,4C000000*,-703.0,964.192,91,22.8,44.9,0.410,744.1,2.2,1.050*
2018-09-13 01:25:00,-2.645E-01,4C000000*,-703.0,962.171,91,22.8,45.0,0.410,744.1,2.2,1.050*
2018-09-13 01:26:00,-3.210E-01,4C000000*,-703.0,962.979,90,22.7,44.7,0.409,744.1,2.2,1.050*
2018-09-13 01:27:00,-3.011E-01,4C000000*,-703.0,962.575,90,22.9,44.7,0.410,744.1,2.2,1.050*
2018-09-13 01:28:00,-2.047E-01,4C000000*,-703.4,966.618,91,22.8,44.8,0.410,744.1,2.2,1.050*
2018-09-13 01:29:00,-2.777E-01,4C000000*,-702.6,963.384,89,22.8,45.0,0.410,744.1,2.2,1.050*
2018-09-13 01:30:00,-3.136E-01,4C000000*,-703.0,963.384,90,22.8,44.9,0.410,744.1,2.2,1.050*
2018-09-13 01:31:00,-3.537E-01,4C000000*,-703.0,962.979,90,22.8,44.8,0.410,744.1,2.2,1.050*
2018-09-13 01:32:00,-2.091E-01,4C000000*,-703.4,963.384,90,22.8,44.9,0.410,744.1,2.2,1.050*
2018-09-13 01:33:00,-2.891E-01,4C000000*,-703.0,963.788,89,22.9,45.2,0.409,744.1,2.2,1.050*
2018-09-13 01:34:00,-2.789E-01,4C000000*,-703.0,963.788,89,22.9,44.7,0.410,744.1,2.2,1.050*
2018-09-13 01:35:00,-3.736E-01,4C000000*,-703.0,964.192,89,22.8,44.8,0.410,744.1,2.2,1.050*
2018-09-13 01:36:00,-3.165E-01,4C000000*,-703.4,965.001,90,22.9,44.9,0.410,744.1,2.2,1.050*
2018-09-13 01:37:00,-3.247E-01,4C000000*,-703.0,964.192,90,22.9,45.1,0.409,744.1,2.2,1.050*
2018-09-13 01:38:00,-2.813E-01,4C000000*,-703.0,965.001,89,22.9,44.7,0.410,744.1,2.2,1.050*
2018-09-13 01:39:00,-2.819E-01,4C000000*,-702.6,964.192,89,22.9,44.8,0.410,744.1,2.2,1.050*
2018-09-13 01:40:00,-3.504E-01,4C000000*,-703.0,963.788,90,22.9,44.9,0.410,744.1,2.2,1.050*
2018-09-13 01:41:00,-3.027E-01,4C000000*,-702.6,962.575,90,22.9,45.1,0.410,744.1,2.2,1.050*
2018-09-13 01:42:00,-3.861E-01,4C000000*,-703.0,964.597,90,22.9,44.8,0.410,743.8,2.2,1.050*
2018-09-13 01:43:00,-2.595E-01,4C000000*,-703.0,964.597,89,22.9,44.9,0.409,744.1,2.2,1.050*
2018-09-13 01:44:00,-2.581E-01,4C000000*,-703.0,963.788,89,22.9,45.1,0.409,744.1,2.2,1.050*
2018-09-13 01:45:00,-3.693E-01,4C000000*,-703.0,965.001,89,22.9,44.7,0.409,743.8,2.2,1.050*
2018-09-13 01:46:00,-3.411E-01,4C000000*,-702.6,965.001,88,22.9,44.8,0.409,744.1,2.2,1.050*
2018-09-13 01:47:00,-2.416E-01,4C000000*,-703.0,963.384,90,23.0,45.0,0.409,744.1,2.2,1.050*
2018-09-13 01:48:00,-3.024E-01,4C000000*,-703.0,964.192,90,22.9,45.0,0.409,743.8,2.2,1.050*
2018-09-13 01:49:00,-2.670E-01,4C000000*,-703.0,964.192,90,23.0,44.8,0.410,744.1,2.2,1.050*
2018-09-13 01:50:00,-2.377E-01,4C000000*,-703.0,962.979,89,23.0,45.1,0.410,743.8,2.2,1.050*
2018-09-13 01:51:00,-3.005E-01,4C000000*,-703.0,962.979,89,22.9,44.8,0.409,744.1,2.2,1.050*
2018-09-13 01:52:00,-3.135E-01,4C000000*,-703.0,962.171,89,23.0,44.8,0.410,744.1,2.2,1.050*
2018-09-13 01:53:00,-2.779E-01,4C000000*,-703.0,962.979,90,23.0,44.9,0.409,744.1,2.2,1.050*
2018-09-13 01:54:00,-2.700E-01,4C000000*,-702.6,962.979,91,23.0,45.1,0.410,744.1,2.2,1.050*
2018-09-13 01:55:00,-3.891E-01,4C000000*,-703.0,962.979,90,23.0,44.8,0.409,744.1,2.2,1.050*
2018-09-13 01:56:00,-2.685E-01,4C000000*,-703.0,962.171,89,23.0,44.8,0.409,743.8,2.2,1.050*
2018-09-13 01:57:00,-3.226E-01,4C000000*,-703.0,963.384,91,23.1,45.0,0.410,744.1,2.2,1.050*
2018-09-13 01:58:00,-2.319E-01,4C000000*,-703.4,963.788,90,23.0,44.9,0.409,743.8,2.2,1.050*
2018-09-13 01:59:00,-2.636E-01,4C000000*,-703.4,962.171,91,23.0,44.8,0.409,744.1,2.2,1.050*
2018-09-13 02:00:00,-1.456E-01,4C000000*,-703.0,962.979,90,23.0,45.0,0.410,744.1,2.2,1.050*
2018-09-13 02:01:00,-2.755E-01,4C000000*,-703.4,962.979,90,23.1,44.9,0.410,743.8,2.2,1.050*
2018-09-13 02:02:00,-4.543E-01,4C000000*,-703.0,963.788,89,23.0,44.7,0.409,744.1,2.2,1.050*
2018-09-13 02:03:00,-2.393E-01,4C000000*,-703.0,962.979,90,23.0,44.9,0.410,743.8,2.2,1.050*
2018-09-13 02:04:00,-3.111E-01,4C000000*,-703.0,962.171,91,23.0,45.0,0.410,744.1,2.2,1.050*
2018-09-13 02:05:00,-2.395E-01,4C000000*,-703.4,961.767,89,23.0,44.8,0.409,744.1,2.2,1.050*
2018-09-13 02:06:00,-3.364E-01,4C000000*,-703.0,961.767,89,23.0,44.9,0.410,744.1,2.2,1.050*
2018-09-13 02:07:00,-3.331E-01,4C000000*,-703.4,962.171,90,23.1,45.1,0.410,744.1,2.2,1.050*
2018-09-13 02:08:00,-3.539E-01,4C000000*,-702.6,962.979,90,23.1,44.7,0.410,744.1,2.2,1.050*
2018-09-13 02:09:00,-2.824E-01,4C000000*,-702.3,962.171,90,23.1,44.9,0.410,743.8,2.2,1.050*
2018-09-13 02:10:00,-2.736E-01,4C000000*,-702.3,962.979,90,23.1,45.0,0.410,744.1,2.2,1.050*
2018-09-13 02:11:00,-3.312E-01,4C000000*,-703.0,962.575,89,23.1,45.0,0.410,743.8,2.2,1.050*
2018-09-13 02:12:00,-2.505E-01,4C000000*,-703.0,962.575,91,23.1,44.7,0.410,744.1,2.2,1.050*
2018-09-13 02:13:00,-2.359E-01,4C000000*,-703.0,962.575,90,23.1,44.9,0.410,744.1,2.2,1.050*
2018-09-13 02:14:00,-3.220E-01,4C000000*,-703.0,962.575,91,23.2,45.0,0.410,744.1,2.2,1.050*
2018-09-13 02:15:00,-2.532E-01,4C000000*,-703.0,962.171,90,23.3,44.8,0.410,743.8,2.2,1.050*
2018-09-13 02:16:00,-2.287E-01,4C000000*,-702.6,962.171,92,23.2,44.8,0.409,744.1,2.2,1.050*
2018-09-13 02:17:00,-2.376E-01,4C000000*,-703.0,961.362,90,23.2,44.9,0.410,744.1,2.2,1.050*
2018-09-13 02:18:00,-3.177E-01,4C000000*,-703.0,962.171,90,23.2,45.2,0.410,744.1,2.2,1.050*
2018-09-13 02:19:00,-2.711E-01,4C000000*,-703.0,962.171,91,23.2,44.7,0.409,743.8,2.2,1.050*
2018-09-13 02:20:00,-2.365E-01,4C000000*,-703.0,963.384,90,23.1,44.8,0.409,744.1,2.2,1.050*
2018-09-13 02:21:00,-2.347E-01,4C000000*,-703.0,962.575,89,23.2,45.1,0.410,743.8,2.2,1.050*
2018-09-13 02:22:00,-2.805E-01,4C000000*,-702.6,963.384,88,23.2,44.8,0.410,743.8,2.2,1.050*
2018-09-13 02:23:00,-2.974E-01,4C000000*,-703.0,961.767,89,23.2,44.8,0.409,743.8,2.2,1.050*
2018-09-13 02:24:00,-2.903E-01,4C000000*,-703.0,962.979,89,23.2,45.0,0.410,743.8,2.2,1.050*
2018-09-13 02:25:00,-2.842E-01,4C000000*,-703.0,963.384,90,23.3,45.1,0.410,743.8,2.2,1.050*
2018-09-13 02:26:00,-2.529E-01,4C000000*,-703.0,962.171,90,23.2,44.7,0.409,743.8,2.2,1.050*
2018-09-13 02:27:00,-2.663E-01,4C000000*,-703.0,962.171,89,23.3,44.8,0.410,743.8,2.2,1.050*
2018-09-13 02:28:00,-2.943E-01,4C000000*,-703.0,961.362,90,23.3,45.0,0.409,743.8,2.2,1.050*
2018-09-13 02:29:00,-3.033E-01,4C000000*,-703.0,962.171,90,23.3,44.9,0.410,743.8,2.2,1.050*
2018-09-13 02:30:00,-2.197E-01,4C000000*,-703.0,962.171,91,23.3,44.7,0.410,743.8,2.2,1.050*
2018-09-13 02:31:00,-2.263E-01,4C000000*,-703.0,961.767,89,23.3,44.9,0.410,743.8,2.2,1.050*
2018-09-13 02:32:00,-3.069E-01,4C000000*,-703.0,962.575,89,23.4,45.0,0.409,743.8,2.2,1.050*
2018-09-13 02:33:00,-2.701E-01,4C000000*,-703.0,961.362,89,23.4,44.8,0.410,743.8,2.2,1.050*
2018-09-13 02:34:00,-1.791E-01,4C000000*,-703.0,960.958,89,23.3,44.8,0.410,743.8,2.2,1.050*
2018-09-13 02:35:00,-3.054E-01,4C000000*,-703.0,962.171,90,23.4,45.0,0.410,744.1,2.2,1.050*
2018-09-13 02:36:00,-2.681E-01,4C000000*,-703.0,962.979,91,23.4,45.0,0.410,743.8,2.2,1.050*
2018-09-13 02:37:00,-2.814E-01,4C000000*,-703.4,962.979,90,23.3,44.7,0.410,744.1,2.2,1.050*
2018-09-13 02:38:00,-3.172E-01,4C000000*,-703.0,961.362,90,23.4,44.8,0.410,744.1,2.2,1.050*
2018-09-13 02:39:00,-2.236E-01,4C000000*,-703.0,961.767,90,23.4,45.0,0.410,743.8,2.2,1.050*
2018-09-13 02:40:00,-3.265E-01,4C000000*,-703.0,961.362,89,23.4,45.0,0.409,743.8,2.2,1.050*
2018-09-13 02:41:00,-3.071E-01,4C000000*,-703.0,963.384,90,23.5,44.8,0.410,743.8,2.2,1.050*
2018-09-13 02:42:00,-3.594E-01,4C000000*,-703.0,962.171,88,23.4,44.9,0.410,744.1,2.2,1.050*
2018-09-13 02:43:00,-3.360E-01,4C000000*,-703.0,962.171,90,23.4,45.1,0.410,743.8,2.2,1.050*
2018-09-13 02:44:00,-3.118E-01,4C000000*,-703.0,960.150,91,23.4,44.7,0.409,743.8,2.2,1.050*
2018-09-13 02:45:00,-2.380E-01,4C000000*,-703.0,961.767,90,23.4,44.8,0.409,743.8,2.2,1.050*
2018-09-13 02:46:00,-2.795E-01,4C000000*,-703.0,961.767,90,23.4,45.0,0.410,743.8,2.2,1.050*
2018-09-13 02:47:00,-2.260E-01,4C000000*,-703.0,962.979,90,23.4,45.0,0.410,743.8,2.2,1.050*
2018-09-13 02:48:00,-3.364E-01,4C000000*,-703.0,962.575,90,23.5,44.7,0.410,744.1,2.2,1.050*
2018-09-13 02:49:00,-3.201E-01,4C000000*,-703.0,961.362,91,23.5,44.8,0.410,743.8,2.2,1.050*
2018-09-13 02:50:00,-2.826E-01,4C000000*,-703.0,961.362,90,23.5,45.1,0.410,743.8,2.2,1.050*
2018-09-13 02:51:00,-2.847E-01,4C000000*,-703.4,961.767,89,23.5,44.9,0.410,743.8,2.2,1.050*
2018-09-13 02:52:00,-3.186E-01,4C000000*,-703.4,961.767,91,23.5,44.8,0.410,743.8,2.2,1.050*
2018-09-13 02:53:00,-2.941E-01,4C000000*,-703.0,962.171,90,23.5,44.9,0.410,743.8,2.2,1.050*
2018-09-13 02:54:00,-3.783E-01,4C000000*,-703.0,962.171,89,23.5,45.0,0.410,743.8,2.2,1.050*
2018-09-13 02:55:00,-2.995E-01,4C000000*,-703.4,962.171,90,23.5,44.8,0.409,743.8,2.2,1.050*
2018-09-13 02:56:00,-2.374E-01,4C000000*,-702.6,962.171,90,23.5,45.0,0.410,743.8,2.2,1.050*
2018-09-13 02:57:00,-2.422E-01,4C000000*,-703.4,962.575,89,23.6,45.1,0.410,743.8,2.2,1.050*
2018-09-13 02:58:00,-2.492E-01,4C000000*,-703.0,962.979,91,23.5,44.7,0.410,743.8,2.2,1.050*
2018-09-13 02:59:00,-3.216E-01,4C000000*,-703.0,965.001,90,23.5,44.8,0.410,743.8,2.2,1.050*
2018-09-13 03:00:00,-2.326E-01,4C000000*,-703.0,962.979,90,23.6,45.0,0.410,743.8,2.2,1.050*
2018-09-13 03:01:00,-2.960E-01,4C000000*,-703.0,961.362,90,23.6,45.0,0.410,743.8,2.2,1.050*
2018-09-13 03:02:00,-2.525E-01,4C000000*,-703.0,962.575,91,23.6,44.7,0.409,743.8,2.2,1.050*
2018-09-13 03:03:00,-3.144E-01,4C000000*,-703.0,962.575,89,23.6,44.9,0.410,744.1,2.2,1.050*
2018-09-13 03:04:00,-3.444E-01,4C000000*,-703.4,963.384,90,23.6,45.1,0.410,743.8,2.2,1.050*
2018-09-13 03:05:00,-2.939E-01,4C000000*,-703.0,960.958,87,23.5,44.8,0.410,743.5,2.2,1.050*
2018-09-13 03:06:00,-2.690E-01,4C000000*,-703.0,962.575,91,23.6,44.8,0.410,743.8,2.2,1.050*
2018-09-13 03:07:00,-2.746E-01,4C000000*,-703.0,963.384,89,23.6,44.9,0.410,743.8,2.2,1.050*
2018-09-13 03:08:00,-3.129E-01,4C000000*,-703.0,962.979,91,23.6,45.1,0.410,743.8,2.2,1.050*
2018-09-13 03:09:00,-2.557E-01,4C000000*,-703.0,962.979,91,23.6,44.8,0.410,744.1,2.2,1.050*
2018-09-13 03:10:00,-2.436E-01,4C000000*,-703.0,962.979,90,23.6,45.0,0.410,743.8,2.2,1.050*
2018-09-13 03:11:00,-3.091E-01,4C000000*,-703.0,962.171,91,23.6,44.9,0.410,743.8,2.2,1.050*
2018-09-13 03:12:00,-2.835E-01,4C000000*,-703.0,962.171,88,23.7,44.8,0.410,743.8,2.2,1.050*
2018-09-13 03:13:00,-1.820E-01,4C000000*,-703.0,962.575,89,23.7,45.0,0.410,743.8,2.2,1.050*
2018-09-13 03:14:00,-3.135E-01,4C000000*,-703.0,960.958,90,23.7,44.9,0.409,743.8,2.2,1.050*
2018-09-13 03:15:00,-2.710E-01,4C000000*,-703.0,962.979,90,23.7,45.0,0.410,743.8,2.2,1.050*
2018-09-13 03:16:00,-3.932E-01,4C000000*,-703.7,962.171,88,23.7,45.1,0.410,743.8,2.2,1.050*
2018-09-13 03:17:00,-3.562E-01,4C000000*,-703.0,962.575,89,23.7,44.8,0.410,743.8,2.2,1.050*
2018-09-13 03:18:00,-2.376E-01,4C000000*,-703.0,961.767,90,23.7,44.9,0.410,743.8,2.2,1.050*
2018-09-13 03:19:00,-2.062E-01,4C000000*,-702.6,962.575,91,23.7,45.1,0.410,743.8,2.2,1.050*
2018-09-13 03:20:00,-2.659E-01,4C000000*,-703.4,963.384,90,23.7,44.8,0.410,743.8,2.2,1.050*
2018-09-13 03:21:00,-2.232E-01,4C000000*,-702.6,963.384,90,23.7,44.8,0.410,743.8,2.2,1.050*
2018-09-13 03:22:00,-3.181E-01,4C000000*,-703.0,961.767,90,23.7,45.0,0.410,743.8,2.2,1.050*
2018-09-13 03:23:00,-2.066E-01,4C000000*,-702.6,962.171,91,23.7,45.0,0.410,743.8,2.2,1.050*
2018-09-13 03:24:00,-2.176E-01,4C000000*,-702.6,962.575,90,23.7,44.7,0.410,743.8,2.2,1.050*
2018-09-13 03:25:00,-3.353E-01,4C000000*,-703.0,963.384,91,23.7,44.9,0.410,743.8,2.2,1.050*
2018-09-13 03:26:00,-3.787E-01,4C000000*,-703.0,962.575,90,23.8,45.0,0.410,743.8,2.2,1.050*
2018-09-13 03:27:00,-1.587E-01,4C000000*,-702.6,961.362,90,23.8,44.7,0.410,743.8,2.2,1.050*
2018-09-13 03:28:00,-2.798E-01,4C000000*,-703.0,961.767,89,23.8,44.8,0.409,744.1,2.2,1.050*
2018-09-13 03:29:00,-2.304E-01,4C000000*,-703.0,961.362,90,23.8,45.1,0.410,743.8,2.2,1.050*
2018-09-13 03:30:00,-3.110E-01,4C000000*,-703.0,962.171,91,23.7,44.8,0.410,743.8,2.2,1.050*
2018-09-13 03:31:00,-1.859E-01,4C000000*,-703.4,962.575,90,23.7,44.9,0.409,743.8,2.2,1.050*
2018-09-13 03:32:00,-2.377E-01,4C000000*,-703.0,961.767,90,23.8,45.1,0.409,743.8,2.2,1.050*
2018-09-13 03:33:00,-2.778E-01,4C000000*,-703.0,961.362,90,23.7,44.8,0.410,743.8,2.2,1.050*
2018-09-13 03:34:00,-3.261E-01,4C000000*,-703.4,962.979,90,23.9,44.8,0.410,743.8,2.2,1.050*
2018-09-13 03:35:00,-2.676E-01,4C000000*,-702.6,962.575,89,23.8,45.0,0.410,743.8,2.2,1.050*
2018-09-13 03:36:00,-2.446E-01,4C000000*,-703.0,962.575,90,23.7,45.0,0.410,743.8,2.2,1.050*
2018-09-13 03:37:00,-2.862E-01,4C000000*,-703.4,962.171,90,23.9,44.8,0.410,743.8,2.2,1.050*
2018-09-13 03:38:00,-2.803E-01,4C000000*,-703.0,960.958,90,23.8,45.0,0.410,743.8,2.2,1.050*
2018-09-13 03:39:00,-2.982E-01,4C000000*,-703.0,963.788,90,23.9,45.0,0.410,743.8,2.2,1.050*
2018-09-13 03:40:00,-3.410E-01,4C000000*,-703.0,962.171,91,23.9,44.8,0.410,743.8,2.2,1.050*
2018-09-13 03:41:00,-2.680E-01,4C000000*,-703.0,960.958,90,23.9,44.9,0.410,743.8,2.2,1.050*
2018-09-13 03:42:00,-1.955E-01,4C000000*,-702.6,962.979,91,23.8,45.0,0.410,743.8,2.2,1.050*
2018-09-13 03:43:00,-3.296E-01,4C000000*,-703.0,963.384,89,23.8,44.9,0.410,743.8,2.2,1.050*
2018-09-13 03:44:00,-2.806E-01,4C000000*,-703.0,962.979,90,23.8,45.1,0.410,743.8,2.2,1.050*
2018-09-13 03:45:00,-2.830E-01,4C000000*,-703.4,962.171,90,23.9,44.8,0.410,743.8,2.2,1.050*
2018-09-13 03:46:00,-2.594E-01,4C000000*,-703.0,962.575,91,23.9,44.8,0.410,743.8,2.2,1.050*
2018-09-13 03:47:00,-3.217E-01,4C000000*,-702.6,962.575,91,23.9,45.0,0.410,743.8,2.2,1.050*
2018-09-13 03:48:00,-2.933E-01,4C000000*,-703.0,962.171,90,23.9,44.8,0.410,743.8,2.2,1.050*
2018-09-13 03:49:00,-2.822E-01,4C000000*,-703.4,962.171,90,23.9,44.8,0.410,743.8,2.2,1.050*
2018-09-13 03:50:00,-3.451E-01,4C000000*,-703.0,961.362,89,23.9,44.9,0.409,743.8,2.2,1.050*
2018-09-13 03:51:00,-2.757E-01,4C000000*,-703.0,960.554,90,24.0,45.2,0.410,743.8,2.2,1.050*
2018-09-13 03:52:00,-3.110E-01,4C000000*,-703.0,962.575,90,23.9,44.7,0.410,743.8,2.2,1.050*
2018-09-13 03:53:00,-3.527E-01,4C000000*,-703.4,963.384,91,24.0,44.8,0.410,744.1,2.2,1.050*
2018-09-13 03:54:00,-2.635E-01,4C000000*,-703.0,962.171,90,24.0,45.0,0.410,743.8,2.2,1.050*
2018-09-13 03:55:00,-3.535E-01,4C000000*,-703.0,961.362,90,23.9,45.0,0.410,743.8,2.2,1.050*
2018-09-13 03:56:00,-1.751E-01,4C000000*,-703.0,962.979,89,24.0,44.7,0.410,743.8,2.2,1.050*
2018-09-13 03:57:00,-2.463E-01,4C000000*,-702.6,962.979,90,23.9,44.9,0.410,743.8,2.2,1.050*
2018-09-13 03:58:00,-2.965E-01,4C000000*,-703.0,962.979,89,24.0,45.1,0.410,743.8,2.2,1.050*
2018-09-13 03:59:00,-2.097E-01,4C000000*,-703.0,962.171,90,23.9,44.8,0.410,743.8,2.2,1.050*
2018-09-13 04:00:00,-2.530E-01,4C000000*,-703.0,962.979,89,24.0,44.8,0.410,743.8,2.2,1.050*
2018-09-13 04:01:00,-1.675E-01,4C000000*,-702.6,962.575,90,24.0,45.0,0.410,744.1,2.2,1.050*
2018-09-13 04:02:00,-3.135E-01,4C000000*,-703.0,963.788,90,24.0,44.9,0.409,743.8,2.2,1.050*
2018-09-13 04:03:00,-3.505E-01,4C000000*,-702.6,961.767,90,24.0,44.9,0.410,743.8,2.2,1.050*
2018-09-13 04:04:00,-3.072E-01,4C000000*,-703.0,960.958,90,24.0,45.1,0.410,743.8,2.2,1.050*
2018-09-13 04:05:00,-3.073E-01,4C000000*,-703.0,961.767,90,23.9,44.8,0.410,743.8,2.2,1.050*
2018-09-13 04:06:00,-3.044E-01,4C000000*,-703.0,962.171,90,24.0,44.9,0.410,743.8,2.2,1.050*
2018-09-13 04:07:00,-2.998E-01,4C000000*,-703.0,962.171,90,24.0,45.1,0.410,743.8,2.2,1.050*
2018-09-13 04:08:00,-3.021E-01,4C000000*,-703.0,961.362,90,24.1,44.8,0.410,743.8,2.2,1.050*
2018-09-13 04:09:00,-3.272E-01,4C000000*,-703.4,962.575,90,24.0,44.9,0.410,743.8,2.2,1.050*
2018-09-13 04:10:00,-2.414E-01,4C000000*,-703.0,961.362,90,24.0,45.1,0.410,743.8,2.2,1.050*
2018-09-13 04:11:00,-3.224E-01,4C000000*,-703.0,961.362,90,24.0,44.8,0.410,743.8,2.2,1.050*
2018-09-13 04:12:00,-3.165E-01,4C000000*,-703.0,961.767,89,24.1,44.9,0.410,743.8,2.2,1.050*
2018-09-13 04:13:00,-2.368E-01,4C000000*,-703.0,961.767,90,24.1,45.2,0.410,743.8,2.2,1.050*
2018-09-13 04:14:00,-2.911E-01,4C000000*,-703.0,961.767,90,24.0,44.7,0.410,743.8,2.2,1.050*